This demonstration page uses our WeatherBlox Daily Observations layout. Learn more.

Left ArrowRight Arrow

Hourly Observations for March 28, 2019

Temp ( °F °C ) Dew Point ( °F °C ) Humidity (%) Winds ( mph kmh ) Pressure ( in mb ) Visibility ( mi km ) Precip ( " mm )
12:51 am 00:51 Clear 54 12.2 32 undefined 43 43 N N/A 29.96 1014 10 16 N/A
1:51 am 01:51 Clear 51 10.6 32 undefined 48 48 N N/A 29.96 1015 10 16 N/A
2:51 am 02:51 Clear 52 11.1 33 0.6 49 49 N N/A 29.96 1015 10 16 N/A
3:51 am 03:51 Clear 51 10.6 33 0.6 50 50 ESE 3 6 29.96 1014 10 16 N/A
4:51 am 04:51 Clear 49 9.4 33 0.6 55 55 ENE 3 6 29.97 1015 10 16 N/A
5:51 am 05:51 Clear 47 8.3 33 0.6 59 59 SSE 3 6 29.99 1016 10 16 N/A
6:51 am 06:51 Sunny 50 10 33 0.6 52 52 E 3 6 30.01 1016 10 16 N/A
7:51 am 07:51 Sunny 56 13.3 33 0.6 42 42 SSE 3 6 30.02 1017 10 16 N/A
8:51 am 08:51 Sunny 64 17.8 33 0.6 32 32 S 3 6 30.01 1016 10 16 N/A
9:51 am 09:51 Sunny 68 20 33 0.6 27 27 N N/A 30.01 1016 10 16 N/A
10:51 am 10:51 Sunny 76 24.4 29 -1.7 18 18 VRB 6 9 29.98 1015 10 16 N/A
11:51 am 11:51 Sunny 80 26.7 24 -4.4 13 13 W 12 19 29.96 1014 10 16 N/A
12:51 pm 12:51 Sunny 81 27.2 26 -3.3 13 13 VRB 5 7 29.93 1014 10 16 N/A
1:51 pm 13:51 Sunny 82 27.8 27 -2.8 13 13 WSW 10 17 29.90 1013 10 16 N/A
2:51 pm 14:51 Sunny 83 28.3 24 -4.4 11 11 WNW 12 19 29.88 1012 10 16 N/A
3:51 pm 15:51 Sunny 83 28.3 21 -6.1 10 10 WNW 15 24 29.87 1012 10 16 N/A
4:51 pm 16:51 Sunny 81 27.2 19 -7.2 10 10 NW 18 30 29.87 1011 10 16 N/A
5:51 pm 17:51 Sunny 80 26.7 16 -8.9 9 9 NW 18 30 29.87 1012 10 16 N/A
6:51 pm 18:51 Clear 74 23.3 19 -7.2 12 12 NW 13 20 29.91 1013 10 16 N/A
7:51 pm 19:51 Clear 71 21.7 17 -8.3 13 13 NW 16 26 29.92 1013 10 16 N/A
8:51 pm 20:51 Clear 68 20 18 -7.8 15 15 WNW 15 24 29.94 1014 10 16 N/A
9:51 pm 21:51 Clear 65 18.3 20 -6.7 18 18 NW 14 22 29.94 1014 10 16 N/A
10:51 pm 22:51 Clear 63 17.2 19 -7.2 18 18 NNW 13 20 29.92 1013 10 16 N/A
11:51 pm 23:51 Clear 62 16.7 20 -6.7 20 20 NNW 12 19 29.91 1013 10 16 N/A

Powered by AerisWeather